Edinburg, TX

6:28 AM CST on December 08, 2016 (GMT -0600)
Edinburg

Weather History for KEBG - December, 2011

Change the Weather History Date:

Tuesday, December 13, 2011

  Actual Average (KMFE) Record (KMFE)
Temperature  
Mean Temperature 72 °F 62 °F  
Max Temperature 82 °F 72 °F 88 °F (1981)
Min Temperature 63 °F 52 °F 28 °F (1903)
Degree Days  
Heating Degree Days 0 6  
Month to date heating degree days 61  
Since 1 July heating degree days 121  
Cooling Degree Days 8 3  
Month to date cooling degree days 41  
Year to date cooling degree days 4410  
Growing Degree Days 22 (Base 50)    
Moisture  
Dew Point 65 °F    
Average Humidity 84    
Maximum Humidity 93    
Minimum Humidity 58    
Precipitation  
Precipitation 0.01 in 0.04 in 0.73 in (1963)
Month to date precipitation 0.46  
Year to date precipitation 21.47  
Sea Level Pressure  
Sea Level Pressure 30.12 in    
Wind  
Wind Speed 0 mph (North)    
Max Wind Speed 0 mph    
Max Gust Speed -    
Visibility 6 miles    
Events Fog , Rain    
T = Trace of Precipitation, MM = Missing Value Source: NWS Daily Summary

Daily Weather History Graph

Daily Weather History Graph

Search for Another Location

Airport or City:

Trip Planner

Search our weather history database for the weather conditions in past years. The results will help you decide how hot, cold, wet, or windy it might be!

Date:

Astronomy

Dec. 13, 2011 Rise Set
Actual Time 7:11 AM CST 5:41 PM CST
Civil Twilight 6:46 AM CST 6:07 PM CST
Nautical Twilight 6:17 AM CST 6:35 PM CST
Astronomical Twilight 5:49 AM CST 7:04 PM CST
Moon 8:47 PM CST (12/13) 9:31 AM CST (12/13)
Length of Visible Light 11h 20m
Length of Day
10h 30m
Waning Gibbous, 90% of the Moon is Illuminated
Dec 13
Waning Gibbous
Dec 17
Last Quarter
Dec 24
New
Jan 1
First Quarter
Jan 9
Full

Hourly Weather History & Observations

Time (CST) Temp. Heat Index Dew Point Humidity Pressure Visibility Wind Dir Wind Speed Gust Speed Precip Events Conditions
12:15 AM 63.7 °F - 60.8 °F 90% 30.17 in 4.0 mi Calm Calm - N/A   Overcast
12:35 AM 63.7 °F - 60.8 °F 90% 30.16 in 4.0 mi Calm Calm - N/A   Mostly Cloudy
12:55 AM 63.3 °F - 60.6 °F 91% 30.15 in 3.0 mi Calm Calm - N/A   Overcast
1:15 AM 63.1 °F - 60.6 °F 91% 30.15 in 3.0 mi Calm Calm - N/A   Overcast
1:35 AM 63.0 °F - 60.4 °F 91% 30.15 in 3.0 mi Calm Calm - N/A   Overcast
1:55 AM 63.1 °F - 60.8 °F 92% 30.15 in 3.0 mi Calm Calm - N/A   Overcast
2:15 AM 63.3 °F - 61.0 °F 92% 30.15 in 3.0 mi Calm Calm - N/A   Overcast
2:35 AM 63.5 °F - 61.0 °F 91% 30.14 in 4.0 mi Calm Calm - N/A   Overcast
2:55 AM 63.5 °F - 61.0 °F 91% 30.14 in 4.0 mi Calm Calm - N/A   Overcast
3:15 AM 63.5 °F - 61.0 °F 91% 30.13 in 5.0 mi Calm Calm - N/A   Overcast
3:35 AM 63.3 °F - 60.8 °F 91% 30.13 in 5.0 mi Calm Calm - N/A   Scattered Clouds
3:55 AM 63.0 °F - 60.6 °F 92% 30.13 in 5.0 mi Calm Calm - N/A   Mostly Cloudy
4:15 AM 63.3 °F - 61.0 °F 92% 30.13 in 4.0 mi Calm Calm - N/A   Overcast
4:35 AM 63.7 °F - 61.3 °F 92% 30.13 in 4.0 mi Calm Calm - N/A   Overcast
4:55 AM 63.9 °F - 61.7 °F 93% 30.12 in 4.0 mi Calm Calm - N/A   Overcast
5:35 AM 64.6 °F - 62.4 °F 93% 30.13 in 2.5 mi Calm Calm - N/A   Overcast
5:55 AM 64.6 °F - 62.4 °F 93% 30.13 in 2.0 mi Calm Calm - N/A   Overcast
6:15 AM 64.4 °F - 62.1 °F 92% 30.13 in 1.5 mi Calm Calm - N/A   Scattered Clouds
6:35 AM 63.9 °F - 61.7 °F 93% 30.14 in 1.2 mi Calm Calm - N/A   Mostly Cloudy
6:55 AM 63.9 °F - 61.7 °F 93% 30.14 in 1.2 mi Calm Calm - N/A   Overcast
7:15 AM 64.0 °F - 61.9 °F 93% 30.15 in 0.5 mi Calm Calm - N/A Fog Fog
7:35 AM 64.0 °F - 61.9 °F 93% 30.15 in 0.2 mi Calm Calm - N/A Fog Fog
7:55 AM 64.4 °F - 62.4 °F 93% 30.16 in 1.0 mi Calm Calm - N/A   Overcast
8:15 AM 64.8 °F - 62.8 °F 93% 30.17 in 2.0 mi Calm Calm - N/A   Overcast
8:35 AM 65.5 °F - 63.5 °F 93% 30.18 in 2.5 mi Calm Calm - N/A   Overcast
8:55 AM 66.2 °F - 64.2 °F 93% 30.18 in 4.0 mi Calm Calm - N/A   Overcast
9:15 AM 66.7 °F - 64.6 °F 93% 30.19 in 4.0 mi Calm Calm - N/A   Overcast
9:55 AM 68.4 °F - 66.2 °F 93% 30.19 in 5.0 mi Calm Calm - N/A Rain Rain
10:15 AM 69.4 °F - 67.3 °F 93% 30.19 in 5.0 mi Calm Calm - N/A   Mostly Cloudy
10:35 AM 70.7 °F - 68.2 °F 92% 30.19 in 7.0 mi Calm Calm - N/A   Overcast
10:55 AM 72.3 °F - 69.3 °F 90% 30.18 in 7.0 mi Calm Calm - N/A   Overcast
11:15 AM 75.2 °F - 70.2 °F 84% 30.17 in 10.0 mi Calm Calm - N/A   Mostly Cloudy
11:35 AM 78.1 °F - 69.4 °F 75% 30.16 in 10.0 mi Calm Calm - N/A   Mostly Cloudy
11:55 AM 78.8 °F - 68.7 °F 71% 30.14 in 10.0 mi Calm Calm - N/A   Mostly Cloudy
12:35 PM 78.8 °F - 68.9 °F 72% 30.12 in 10.0 mi Calm Calm - N/A   Overcast
12:55 PM 80.4 °F 83.2 °F 68.5 °F 67% 30.11 in 10.0 mi Calm Calm - N/A   Mostly Cloudy
1:15 PM 81.5 °F 84.2 °F 67.8 °F 63% 30.10 in 10.0 mi Calm Calm - N/A   Mostly Cloudy
1:35 PM 81.3 °F 84.0 °F 67.8 °F 63% 30.09 in 10.0 mi Calm Calm - N/A   Mostly Cloudy
2:15 PM 81.5 °F 84.2 °F 67.6 °F 63% 30.07 in 10.0 mi Calm Calm - N/A   Mostly Cloudy
2:35 PM 82.2 °F 84.6 °F 66.4 °F 59% 30.07 in 10.0 mi Calm Calm - N/A   Mostly Cloudy
2:55 PM 82.0 °F 84.1 °F 65.8 °F 58% 30.07 in 10.0 mi Calm Calm - N/A   Mostly Cloudy
3:15 PM 81.9 °F 84.1 °F 66.4 °F 59% 30.07 in 10.0 mi Calm Calm - N/A   Overcast
3:35 PM 80.1 °F 82.6 °F 67.8 °F 66% 30.07 in 10.0 mi Calm Calm - N/A   Overcast
3:55 PM 79.7 °F - 68.2 °F 68% 30.06 in 10.0 mi Calm Calm - N/A   Overcast
4:15 PM 79.9 °F - 67.5 °F 66% 30.06 in 10.0 mi Calm Calm - N/A   Overcast
4:35 PM 79.7 °F - 67.6 °F 66% 30.06 in 10.0 mi Calm Calm - N/A   Overcast
4:55 PM 79.2 °F - 68.2 °F 69% 30.06 in 10.0 mi Calm Calm - N/A   Overcast
5:55 PM 73.9 °F - 69.8 °F 87% 30.08 in 10.0 mi Calm Calm - 0.01 in   Overcast
6:15 PM 73.8 °F - 69.8 °F 87% 30.08 in 10.0 mi Calm Calm - N/A   Overcast
6:35 PM 73.8 °F - 70.0 °F 88% 30.08 in 10.0 mi Calm Calm - N/A Rain Rain
7:15 PM 73.4 °F - 69.8 °F 88% 30.08 in 7.0 mi Calm Calm - N/A   Overcast
7:55 PM 73.6 °F - 70.5 °F 90% 30.07 in 10.0 mi Calm Calm - N/A   Mostly Cloudy
8:15 PM 73.6 °F - 70.3 °F 90% 30.08 in 10.0 mi Calm Calm - N/A   Mostly Cloudy
8:35 PM 73.8 °F - 70.7 °F 90% 30.08 in 10.0 mi Calm Calm - N/A   Overcast
8:55 PM 73.8 °F - 70.5 °F 90% 30.08 in 10.0 mi Calm Calm - N/A   Overcast
9:15 PM 73.8 °F - 70.5 °F 90% 30.08 in 10.0 mi Calm Calm - N/A   Overcast
9:35 PM 74.1 °F - 70.7 °F 89% 30.08 in 10.0 mi Calm Calm - N/A   Overcast
9:55 PM 74.3 °F - 70.7 °F 88% 30.08 in 10.0 mi Calm Calm - N/A   Overcast
10:15 PM 73.9 °F - 70.3 °F 88% 30.08 in 10.0 mi Calm Calm - N/A   Overcast
10:55 PM 74.1 °F - 70.3 °F 88% 30.07 in 10.0 mi Calm Calm - N/A   Overcast
11:15 PM 74.3 °F - 70.5 °F 88% 30.07 in 10.0 mi Calm Calm - N/A   Overcast
11:35 PM 74.5 °F - 70.3 °F 87% 30.07 in 10.0 mi Calm Calm - N/A   Overcast
11:55 PM 74.1 °F - 70.0 °F 87% 30.06 in 10.0 mi Calm Calm - N/A   Overcast